Reflectivity
-6 -0 -2 11 11 -12 -20 -20 -20 -20 -20 -20 -20 -20 -20 -20 -17 -19 2 19 8 2 11 4 -9 8 -20 9 -11 -3 -20 -1 11 19 16 3 -11 2 -20 -4 1 -9 -11 -11 11 12 -6 -20 -20 -20 -20 -20 -20 22
-15 -19 1 10 13 -7 -14 -20 -20 -20 -20 -20 -20 -20 -20 -20 -20 -20 -2 1 1 -2 7 -11 -13 -20 -19 -12 -19 -20 -20 -18 1 2 12 8 9 2 -3 -3 -20 -4 -20 15 -16 3 -20 -20 -20 -20 -20 -20 -20 -20
-10 1 -2 7 3 -4 -4 -20 -20 -20 -20 -20 -20 -20 -8 -20 -20 -10 -17 2 16 -3 -11 -11 -14 -20 -20 -20 -20 -17 -18 5 -7 -1 12 12 15 12 10 -19 -20 -20 -20 -20 -20 -20 -20 -20 -20 -20 -20 -20 -20 -20
-7 1 3 10 4 1 2 -2 -20 -13 -20 3 -14 7 -20 -20 -20 -20 -14 -2 -8 -5 -10 12 -20 -20 -20 -20 -16 7 21 25 10 14 16 31 9 -20 12 -17 -20 -20 -20 -20 -20 -20 -20 -20 -20 -20 -20 -20 -20 -20
-2 1 3 10 3 1 5 2 -14 -2 5 5 -20 10 9 0 -10 -20 -20 -1 -20 15 11 1 -20 -20 -20 -17 16 19 26 26 20 20 9 12 -18 1 -20 -20 -20 -20 -20 -20 -20 -20 -20 -20 -20 -20 -20 -20 -20 -20
-4 -4 10 10 -12 1 10 0 -2 -2 2 -0 -2 12 2 8 -12 -20 2 4 -3 14 22 15 -20 -20 -20 -17 -20 17 27 23 23 21 14 14 7 19 10 -20 -20 -20 -20 -20 -20 -20 -20 -20 -20 -20 -20 -20 -20 -20
-4 3 -8 8 -3 -6 2 -9 -20 -12 -16 2 6 -7 -7 3 -1 -19 -4 10 11 -0 3 -10 8 -20 -20 -20 -20 15 19 23 23 20 16 21 19 6 -2 -16 -20 -20 -20 -20 -20 -20 -20 -20 -20 -20 -20 -20 -20 -20
-5 -1 3 7 -15 -8 2 -20 -20 -20 -20 -2 -4 9 14 4 -5 -17 -5 -4 2 21 3 9 -13 -20 -9 -13 3 -11 21 28 25 22 13 0 -5 -20 1 -20 -20 -20 -20 -20 -20 -20 -20 -20 -20 -20 -20 -14 -20 -18
-1 -20 1 5 -3 2 0 -20 -20 -20 -20 -20 -20 -18 -9 -15 -4 0 21 10 -3 16 19 -13 -10 -12 -14 -14 -15 -19 20 30 27 21 1 8 -2 -3 -20 -20 -20 -20 -20 -20 -20 -20 -20 -20 -20 -20 -14 -16 -20 -20
-0 -17 10 -17 4 -1 -20 -20 -20 -20 -20 -20 -20 -20 2 -6 -20 7 9 9 5 2 2 3 -20 5 -20 1 14 -17 -16 24 27 25 21 6 -19 -20 -20 -20 -20 -20 -20 -20 -20 -20 -20 -20 -20 -20 -20 -20 -20 -20
-20 -19 8 -13 6 3 -20 -20 -20 -20 -20 -20 -20 -20 -20 -19 -3 8 17 -11 -13 7 6 -8 -20 2 -20 -11 9 -20 -20 -20 -2 -20 7 -9 -20 -20 -20 -20 -20 -20 -20 -20 -20 -20 -20 -20 -20 -20 -20 -20 -20 -20
-20 -6 -9 -3 4 -1 -20 -20 -20 -20 -16 -10 -10 -11 11 4 4 -18 11 -15 -5 2 -11 11 4 -20 -20 -20 -20 -20 -16 -20 -13 -20 -13 -18 -12 -20 -20 -19 -18 -20 5 -6 -15 -8 -20 -18 -11 -10 -20 -20 -20 -20
-20 6 -17 5 3 -20 -20 -20 -20 -20 -20 -20 -20 -1 -20 -19 -15 -19 -20 -3 7 -20 1 12 -9 -20 -20 -20 -20 -20 -19 -20 -20 -18 -20 -20 -20 -20 -20 -19 -18 -17 -5 -20 -20 -20 -20 -20 -20 -20 -20 -20 -20 -20
-20 5 -16 0 -19 -20 -20 -20 -20 -19 -20 -20 -20 -20 -20 -20 -20 -20 -20 -20 -20 -20 -5 -6 -3 -19 -16 -20 -20 -16 -20 -20 -20 -8 -20 -20 -20 -20 -20 -20 -20 -20 -20 -20 -9 -6 -17 -20 -19 -13 -20 -20 -20 -20
-13 3 -20 -20 -20 -20 -20 -20 -20 -20 -12 -20 -20 -20 -20 -20 -20 -20 -20 -20 -13 -20 -20 -20 -11 -14 -1 -8 -20 -20 -20 -20 -20 -20 -20 -20 -20 -20 -20 -20 -20 -20 -20 -20 -20 -20 -20 -20 -20 -20 -20 -20 -20 -20
2 -20 -20 -20 -20 -20 -20 -20 -16 -12 -6 -20 -20 -20 -20 -20 -1 -19 -20 -20 -20 -15 -20 -20 -20 -14 -20 -20 -20 -20 -20 -20 -20 -20 -20 -20 -20 -20 -20 -20 -20 -20 -20 -20 -20 -20 -20 -20 -20 -20 -20 -20 -20 -20
6 -20 -20 -20 -20 -20 -20 -20 -9 -18 -20 -20 -18 -20 -20 -20 -19 -20 -18 -18 -20 -20 -9 -20 1 -20 -20 -20 -20 -20 -20 -20 -20 -20 -20 -20 -20 -20 -20 -20 -20 -20 -20 -20 -20 -20 -20 -20 -20 -20 -20 -20 -20 -20
2 -20 -20 -20 -20 -20 -20 -9 -20 -20 -20 -18 -20 -20 -20 -20 -20 -20 -20 -20 -16 -20 -20 4 -13 -15 -19 -20 -20 -20 -20 -20 -20 -20 -20 -20 -20 -20 -20 -20 -20 -20 -20 -20 -20 -20 -20 -20 -20 -20 -20 -20 -20 -20
-9 -14 -15 -18 -20 -20 -20 -20 -16 -20 -20 -20 -20 -20 -20 -20 -20 -20 -20 -20 -20 -20 -13 7 -13 -17 -19 -19 -20 -20 -20 -20 -19 -20 -20 -20 -20 -20 -20 -20 -20 -20 -20 -20 -20 -20 -20 -20 -20 -20 -20 -20 -20 -14
16 -2 1 -14 -18 -18 -20 -20 -20 -20 -20 -20 -20 -20 -20 -20 -20 -20 -20 -20 -5 -20 -4 2 -20 -20 -20 -20 -18 -16 -20 -20 -20 -20 -20 -20 -20 -20 -20 -20 -20 -20 -20 -20 -20 -20 -20 -20 -20 -20 -20 -20 -20 -12
-1 -9 -20 -5 9 -0 -20 -20 -14 -20 -20 -17 -20 -20 -20 -20 -20 -20 -7 -20 2 -20 -20 -20 -20 -20 -20 -20 -20 -20 -20 -20 -20 -20 -20 -20 -20 -20 -20 -20 -20 -20 -20 -20 -20 -20 -20 -20 -20 -20 -19 -20 -5 -11
6 2 -11 -6 6 0 -20 -16 -3 -19 -20 -20 -20 -20 -20 -20 -20 -15 -20 -20 -20 -20 -20 -20 -20 -20 -20 -20 -20 -20 -20 -20 -20 -15 -14 -12 -20 -20 -20 -20 -20 -20 -20 -20 -20 -20 -20 -20 -20 -16 -17 -17 6 -4
8 -1 4 -1 -1 -16 -20 1 2 -20 -20 -20 -20 -20 -20 -20 -20 -20 -20 -20 -19 -20 -20 -20 -20 -20 -20 -20 -20 -20 -20 -20 -20 -20 -20 -20 -20 -20 -20 -20 -20 -20 -20 -20 -20 -20 -20 -14 -13 -20 -11 3 -5 -20
4 8 3 1 -12 -20 -20 4 2 -20 -20 -20 -20 -20 -20 -20 -20 -20 -20 -20 -20 -20 -20 -20 -20 -20 -20 -20 -20 -20 -20 -20 -20 -20 -20 -20 -20 -20 -15 -18 -20 -20 -20 -20 -20 -19 -15 -15 -19 -13 3 -17 -19 -12
10 7 2 -15 -20 -20 -4 2 -14 -20 -20 -20 -20 -20 -20 -20 -20 -20 -20 -20 -20 -20 -20 -20 -20 -20 -20 -20 -20 -20 -20 -20 -20 -20 -20 -20 -20 -20 -20 11 7 -20 -20 -20 -16 -17 -14 -14 -2 0 -20 3 11 1
8 -11 -20 -20 -20 2 0 -20 -20 -20 -20 -20 -20 -20 -20 -20 -20 -20 -20 -20 -20 -20 -20 -20 -20 -20 -20 -20 -20 -20 -20 -20 -20 -20 -20 -20 -20 -5 -8 -3 12 19 3 -14 -15 -15 -7 14 17 4 11 15 -0 1
-0 -15 -20 -18 -1 4 -12 -20 -20 -20 -20 -20 -20 -20 -20 -20 -20 -20 -20 -20 -20 -20 -20 -20 -20 -20 -20 -20 -20 -20 -20 -20 -20 -20 -20 -20 -20 -20 -15 1 0 15 26 23 7 -7 3 8 19 17 19 12 14 10
-20 -20 -4 4 -7 -20 -20 -20 -20 -20 -20 -20 -20 -20 -20 -20 -20 -20 -20 -20 -20 -20 -20 -20 -20 -20 -20 -20 -20 -20 -20 -20 -20 -20 -20 -20 -20 -20 -20 -1 12 19 20 20 6 14 17 18 21 25 21 13 10 10
-8 -1 -7 -20 -20 -20 -20 -20 -20 -20 -20 -20 -20 -20 -20 -20 -20 -20 -20 -20 -20 -20 -20 -20 -20 -20 -20 -20 -20 -20 -20 -20 -18 -20 -20 -20 -20 -20 3 10 11 17 18 21 19 16 18 20 23 23 17 18 6 -2
-13 -20 -20 -20 -20 -20 -20 -20 -20 -20 -20 -20 -20 -20 -20 -20 -20 -20 -20 -20 -20 -20 -20 -20 -20 -20 -20 -20 -20 -20 -20 -20 -20 -20 -20 -20 -20 -18 9 11 15 17 19 25 25 21 23 24 24 14 13 10 4 4
-20 -19 -20 -20 -20 -20 -20 -20 -20 -20 -20 -20 -20 -20 -20 -20 -20 -20 -20 -20 -20 -20 -20 -20 -20 -20 -20 -20 -20 -20 -20 -20 -20 -19 -20 -17 -20 -20 -14 8 16 22 24 25 25 23 13 6 6 6 1 -0 9 22
-8 -19 -20 -20 -20 -20 -20 -20 -20 -20 -20 -20 -20 -20 -20 -20 -20 -20 -20 -20 -20 -20 -20 -20 -20 -20 -20 -20 -20 -20 -20 -20 -20 -20 -20 -20 -20 -20 1 8 17 20 19 19 18 13 19 22 20 17 15 16 22 19
-20 -20 -20 -20 -20 -20 -20 -20 -20 -20 -20 -20 -20 -20 -20 -20 -20 -20 -20 -20 -20 -20 -20 -20 -20 -20 -20 -20 -20 -20 -8 -20 -20 -14 -0 -0 1 -15 5 8 13 14 10 15 21 22 23 22 18 17 20 21 14 10
Wind_Speed
14 14 15 15 16 12 14 15 15 15 15 15 15 15 15 15 17 10 4 2 4 3 1 2 4 1 3 4 3 4 2 1 3 3 3 3 6 4 4 2 6 8 6 4 4 5 7 6 8 5 8 9 7 2
14 15 15 16 15 12 13 14 14 15 15 14 14 14 14 15 16 13 2 3 4 3 4 1 3 2 3 3 3 6 0 3 2 3 4 4 4 3 5 2 3 5 7 3 8 5 9 10 7 7 5 10 5 1
13 16 15 17 14 13 14 15 14 14 15 15 15 15 13 13 13 10 4 3 3 3 3 3 3 3 1 1 1 3 1 3 3 2 2 4 6 2 4 8 3 7 5 4 4 5 4 11 5 3 6 5 4 2
13 15 17 16 14 13 15 15 15 15 17 17 16 14 14 13 12 10 4 1 1 3 3 2 1 1 2 1 2 2 3 2 2 1 2 3 4 0 2 3 5 4 6 4 8 13 2 4 6 5 4 5 6 6
14 15 16 16 15 13 16 16 16 16 17 17 15 14 14 13 13 9 6 3 5 2 3 3 1 2 1 1 3 3 4 4 3 3 4 4 3 4 4 3 7 7 8 7 5 5 3 4 4 4 4 5 7 9
14 14 16 15 14 15 16 17 17 17 18 18 16 17 14 12 8 3 2 2 3 2 3 2 2 2 2 2 1 2 3 2 1 2 3 3 2 3 4 4 6 8 9 11 10 4 4 5 4 5 6 6 9 11
13 14 16 14 14 16 16 17 18 18 19 19 18 16 12 9 5 3 2 1 4 3 3 3 2 2 1 1 1 2 3 2 1 2 3 3 2 2 4 9 6 6 4 5 4 4 3 6 3 7 10 11 12 11
13 14 16 13 14 16 16 17 18 19 21 20 15 9 5 5 3 2 0 1 2 3 3 2 2 2 3 1 2 2 2 2 3 2 1 2 1 2 5 13 12 10 7 6 7 6 2 10 11 10 11 12 13 11
14 14 16 13 13 15 16 17 18 21 22 16 9 0 3 1 1 1 9 12 4 3 2 1 2 1 2 1 1 2 1 3 0 3 1 1 3 7 9 7 6 5 4 2 4 4 7 9 10 11 11 12 13 12
13 14 15 11 13 14 14 17 19 21 19 11 3 2 3 1 9 7 3 2 3 2 2 2 2 1 2 0 0 2 0 1 2 1 2 3 5 13 13 10 5 2 2 8 6 3 4 6 10 12 10 10 11 11
11 14 12 11 13 13 14 15 18 21 5 3 3 2 3 8 2 1 1 2 1 2 2 0 2 3 2 2 2 1 1 1 2 1 2 3 4 2 3 4 5 7 6 9 3 1 10 12 13 13 11 11 11 12
11 14 9 10 12 10 11 13 14 6 3 3 2 1 2 1 1 2 0 1 1 1 2 2 1 2 0 1 2 0 1 1 2 3 2 4 2 3 6 6 6 5 4 7 5 3 8 12 12 12 13 12 12 13
12 14 10 11 10 7 10 10 9 7 4 1 1 1 1 1 2 4 4 3 1 3 3 3 2 2 1 1 1 1 1 2 0 2 3 4 3 4 6 6 5 3 2 2 2 3 7 10 11 12 13 12 14 13
12 12 9 10 7 8 9 7 5 3 3 1 2 1 1 3 1 1 1 2 2 1 3 2 2 1 2 1 1 2 0 2 2 3 5 2 6 8 7 5 5 2 2 3 4 5 8 10 10 11 11 13 14 14
12 11 10 7 4 6 5 4 4 1 2 1 1 2 2 2 2 2 1 2 0 2 2 2 2 1 1 1 1 1 2 4 4 3 3 6 9 7 8 8 6 2 1 4 5 7 8 10 10 11 11 11 12 13
9 9 2 2 6 5 3 3 0 1 1 1 1 2 2 1 2 2 1 0 1 4 1 1 1 1 3 1 2 5 3 5 2 4 5 7 10 10 9 8 6 4 1 2 4 7 9 11 11 12 12 11 11 12
5 3 5 3 4 2 3 3 1 1 2 3 3 0 1 2 1 2 1 1 3 3 1 1 3 3 1 3 4 4 4 3 6 6 6 8 9 9 9 9 6 4 1 3 5 7 9 9 12 12 13 10 11 11
3 2 3 4 2 1 1 2 1 0 3 2 2 3 2 0 1 1 1 2 2 2 2 1 3 4 4 4 2 3 3 5 5 5 7 9 9 9 6 7 5 4 1 2 4 6 8 10 11 8 12 12 12 12
4 4 3 1 2 2 1 0 1 2 2 0 1 0 1 1 2 2 2 2 1 0 3 2 4 4 2 3 3 4 5 6 8 9 10 11 6 7 7 4 2 2 1 3 6 6 6 7 7 9 9 9 9 9
7 7 4 5 3 1 2 1 1 1 2 1 0 2 2 1 1 2 3 3 2 2 4 4 4 1 1 1 2 5 6 6 7 9 8 5 6 5 4 5 3 1 2 3 2 6 6 6 6 7 8 9 10 10
6 4 5 2 2 2 1 2 2 0 0 1 1 1 2 1 1 1 2 1 3 3 4 2 1 0 2 4 4 5 7 7 7 7 9 9 8 7 6 3 3 3 4 5 5 6 7 6 7 7 9 8 8 9
3 7 2 1 2 1 1 2 1 2 1 1 2 1 2 2 2 2 1 3 4 2 1 1 1 3 5 5 6 7 9 10 10 10 14 13 9 7 5 4 3 4 4 4 5 6 5 6 6 8 9 10 11 10
8 2 2 2 1 2 1 2 2 2 3 3 2 3 2 2 1 0 3 3 2 2 2 1 1 3 6 9 9 9 9 8 8 8 8 8 8 7 5 5 5 5 5 5 4 6 6 11 11 9 10 11 11 11
5 3 1 2 3 3 1 2 1 2 1 3 2 2 2 1 2 2 4 3 2 3 3 3 2 4 4 4 5 6 6 6 7 8 7 7 8 7 6 6 5 5 5 4 5 6 7 8 14 10 10 12 12 11
5 4 3 5 1 3 4 4 3 3 3 3 3 2 2 1 2 3 4 2 3 4 4 4 4 4 4 6 6 6 4 6 7 9 8 8 8 8 6 5 5 5 6 7 8 9 9 10 10 11 12 12 14 14
5 5 7 7 4 5 5 6 6 5 3 3 4 1 1 2 2 5 3 3 4 4 5 5 4 4 6 6 8 7 6 5 6 9 8 8 7 7 7 6 4 4 5 7 9 12 12 12 12 15 13 16 22 16
6 7 3 1 1 3 2 2 2 2 5 6 5 5 3 3 6 4 2 3 3 3 3 3 4 5 7 7 7 7 6 6 8 9 9 9 9 9 8 9 8 3 7 9 9 12 14 14 15 14 13 13 13 13
3 5 6 6 3 1 4 3 5 7 5 4 6 5 7 7 5 2 2 2 2 2 2 3 5 6 7 7 6 7 7 7 9 9 9 10 11 9 9 8 8 11 8 9 10 10 12 13 14 15 15 13 12 11
4 4 5 4 3 4 5 6 5 3 2 4 5 4 4 3 1 1 2 2 2 2 3 4 4 3 5 6 6 7 7 7 9 12 13 9 7 5 4 6 5 6 6 8 19 15 15 14 15 14 15 13 11 10
5 5 3 4 6 7 2 0 1 1 1 2 2 3 3 3 2 1 2 3 3 4 4 3 3 3 5 5 7 8 6 7 8 9 9 8 7 4 3 5 5 5 6 8 9 12 23 16 18 15 14 12 11 11
5 3 3 3 3 2 2 2 1 1 1 1 0 2 3 5 5 3 3 3 3 2 2 4 3 3 5 5 6 8 10 4 4 6 7 7 8 8 7 5 4 5 7 10 11 12 15 14 13 16 15 15 17 14
3 3 3 4 3 1 0 0 1 1 0 1 1 1 2 2 4 3 3 3 3 3 4 3 4 5 4 5 7 8 17 11 10 9 11 8 8 8 6 4 5 7 9 10 12 14 17 17 15 15 16 18 16 14
3 2 1 3 3 2 2 1 1 2 1 2 1 1 1 2 6 2 2 3 3 1 1 3 4 5 7 10 10 9 11 7 11 14 15 13 9 8 5 5 6 9 13 12 12 14 17 22 18 18 17 16 14 13
Wind_Direction
304 309 306 311 316 337 333 335 337 340 339 339 343 344 345 350 358 358 283 61 329 323 310 302 343 160 148 214 157 133 133 108 158 210 225 241 261 219 244 191 174 182 180 190 184 223 265 12 313 348 341 313 329 72
304 303 304 307 312 327 329 326 331 334 332 332 334 331 339 349 346 353 309 339 294 229 320 310 309 346 27 5 117 174 334 142 180 217 213 265 238 240 254 234 200 226 214 180 205 233 314 315 297 328 345 304 339 353
302 299 299 305 313 320 319 317 322 328 325 326 326 323 331 335 338 345 311 309 304 275 257 226 214 104 226 347 18 164 212 161 198 279 289 264 261 294 218 234 234 220 197 239 292 194 314 324 326 15 357 359 13 74
294 296 297 307 309 316 314 313 317 323 319 321 325 325 322 319 324 321 300 237 260 281 282 122 95 191 30 27 91 62 107 91 103 187 255 265 276 198 290 348 272 1 161 243 264 277 304 65 43 19 25 45 63 71
289 294 296 305 309 315 310 312 316 320 317 316 318 315 311 305 305 304 281 211 224 272 323 320 217 130 48 170 163 148 190 163 172 191 223 232 201 263 223 284 251 220 250 242 264 54 323 34 48 17 62 71 84 100
286 292 293 306 310 312 311 312 315 319 318 318 314 304 297 293 296 307 210 102 171 199 275 279 71 171 135 119 143 237 168 194 231 220 212 231 285 272 276 267 268 267 241 275 277 74 75 99 87 80 93 92 95 103
287 289 293 306 310 308 310 313 316 323 319 318 317 307 285 262 234 214 359 56 319 320 254 299 277 114 148 147 196 211 167 236 241 229 238 253 195 197 255 246 248 299 259 263 237 167 178 180 141 115 110 104 101 102
285 285 296 309 310 303 310 315 320 323 324 326 322 317 251 181 153 252 106 7 349 240 251 286 277 253 177 211 230 160 206 174 199 266 252 232 128 166 257 254 264 268 286 248 232 210 7 121 127 127 128 124 116 116
279 288 298 309 309 306 312 319 325 327 330 328 324 112 114 86 172 93 328 311 194 279 289 201 271 324 176 241 264 207 219 205 198 234 208 229 180 222 239 274 281 274 221 231 140 166 156 147 142 149 147 138 132 134
279 289 301 310 307 305 319 325 329 331 330 322 230 207 124 117 319 309 164 153 176 226 224 256 293 262 249 4 272 282 132 325 241 117 315 231 255 263 271 285 298 282 213 155 144 171 151 136 156 163 162 146 137 138
283 285 300 307 304 312 328 333 338 336 333 11 21 35 321 318 217 35 22 199 169 270 210 130 298 304 115 289 329 354 298 278 272 63 279 261 260 247 26 315 302 275 223 204 228 226 174 162 164 157 144 139 138 138
282 284 295 297 297 319 327 339 348 349 355 329 291 292 270 316 103 104 37 317 234 292 44 302 6 285 46 297 293 353 293 316 272 331 287 261 267 5 345 331 329 324 236 198 207 179 164 164 163 152 142 142 141 129
275 287 295 296 300 325 326 344 349 322 292 195 228 55 276 69 149 190 175 169 238 13 10 346 304 317 252 253 272 266 269 239 328 254 254 255 346 356 353 343 346 4 102 113 75 127 151 147 143 145 143 139 133 135
269 286 290 295 305 330 332 337 352 326 291 41 346 161 252 153 152 90 33 47 45 297 316 311 279 310 335 270 319 236 280 279 259 250 242 343 5 341 335 343 324 24 87 99 110 129 135 138 139 137 139 141 140 140
269 282 287 293 315 333 332 305 357 18 283 89 262 197 187 67 92 76 45 320 106 309 305 286 263 271 284 288 240 328 232 244 227 251 17 355 336 334 334 342 335 320 138 135 140 145 149 143 141 136 140 142 133 134
275 290 220 96 337 347 320 292 344 75 310 173 233 173 134 182 147 154 109 306 47 334 283 265 262 257 244 207 198 224 245 239 48 355 340 334 338 337 340 335 329 327 286 146 150 149 148 151 148 139 132 132 138 140
261 253 177 317 7 18 5 276 239 47 220 199 177 15 27 25 180 107 76 35 331 306 327 345 235 232 3 207 232 209 228 348 330 321 328 332 324 323 324 321 324 316 267 165 149 154 147 133 129 131 133 133 128 122
221 174 210 312 54 38 20 314 81 254 216 192 196 160 182 131 190 240 111 76 352 4 326 356 313 234 232 224 220 49 357 337 316 326 318 319 320 319 324 323 332 325 276 130 97 110 128 143 147 138 131 126 117 118
200 196 227 172 119 70 261 201 347 184 208 101 350 111 183 216 246 289 284 255 238 297 301 248 251 229 246 46 354 339 333 327 316 318 307 309 330 329 323 329 337 335 83 154 167 168 165 160 135 139 139 141 131 133
214 135 136 103 90 163 225 127 302 190 187 116 309 222 223 190 311 276 272 245 207 200 218 230 241 65 35 84 303 296 299 300 307 308 311 322 342 335 336 320 319 67 156 138 121 132 123 122 135 146 148 143 139 140
109 134 99 70 71 39 335 157 134 61 110 210 102 249 254 262 215 208 185 64 206 222 232 216 212 160 263 282 281 286 290 293 288 285 292 300 315 316 307 285 267 227 205 189 181 182 176 164 153 150 143 136 132 128
108 141 116 62 98 59 185 13 49 107 185 112 173 256 230 208 171 166 345 203 232 228 210 200 297 311 298 299 306 300 294 293 279 279 283 284 290 290 274 253 208 236 234 218 191 179 163 149 152 143 133 129 123 128
112 110 77 76 105 212 213 275 175 160 205 189 178 214 204 209 189 300 229 231 283 206 163 191 267 270 280 294 293 288 282 291 289 291 294 291 289 286 269 249 226 202 219 215 188 156 154 153 152 138 135 135 131 131
51 64 182 198 225 186 163 185 123 139 178 207 203 217 198 192 322 213 248 224 172 145 191 203 245 295 283 257 276 297 301 299 290 285 285 296 294 288 273 262 238 224 191 159 155 154 155 153 151 148 147 142 140 138
134 187 197 204 175 154 195 169 165 195 216 196 200 218 171 255 222 229 241 234 183 196 201 197 224 242 263 284 287 281 287 288 289 290 291 287 286 286 270 243 239 227 151 158 173 168 163 159 155 154 156 148 147 147
211 177 193 193 164 202 182 158 188 188 160 174 218 100 191 194 240 239 223 202 193 194 191 201 220 256 259 246 276 288 295 302 295 280 282 271 275 293 293 270 233 216 200 178 182 173 169 162 159 159 150 155 155 141
214 195 181 219 119 119 113 72 96 169 179 190 176 166 171 202 235 238 196 197 194 190 185 183 203 234 260 277 276 274 277 268 253 264 280 278 270 264 258 268 254 223 180 196 191 179 170 164 157 155 152 155 156 155
225 166 174 167 165 260 157 176 183 200 189 178 145 185 189 202 231 198 182 122 131 135 190 228 235 246 258 264 271 281 278 270 270 268 267 262 250 248 245 249 245 192 186 187 176 169 170 163 158 155 155 151 144 144
186 160 139 139 150 201 217 195 216 193 96 171 181 205 228 229 277 212 170 160 138 194 249 261 253 229 270 271 258 253 256 266 280 281 281 284 291 269 236 249 216 193 182 183 176 168 168 158 153 151 143 140 135 130
170 173 136 161 174 212 169 294 89 53 340 352 329 285 254 250 240 139 190 185 207 227 246 262 273 268 281 293 291 288 268 259 251 249 265 275 278 316 274 243 221 179 164 167 156 152 153 141 135 122 124 125 125 125
129 133 117 175 214 74 53 357 305 330 358 275 317 258 285 321 302 212 220 223 226 206 244 263 266 251 272 280 285 295 298 287 266 274 275 281 277 272 266 255 190 163 153 149 153 148 137 134 133 129 132 130 134 126
148 180 152 177 172 99 180 245 56 285 316 275 217 259 274 273 266 230 161 158 182 217 238 258 275 285 288 284 274 266 266 272 272 269 269 265 263 242 216 188 158 152 148 141 134 138 138 133 133 134 132 127 125 130
100 93 80 128 137 149 134 152 70 300 228 254 248 270 271 275 258 331 136 224 251 278 287 283 282 281 283 283 278 287 301 283 270 277 274 267 234 185 160 149 140 132 132 136 141 140 136 131 129 127 125 127 129 129